Zurück zum Katalog

BEIDOU 3 M28

AktivNavigationMEO
NORAD 58654·PAYLOAD·🇨🇳 China

Gestartet Dec 26, 2023 von Xichang Satellite Launch Center

Loading…

Nächste Überflüge (nächste 24 Stunden)

TLE

AktuellSource: Space-Track

Epoche: Sep 14, 2026, 10:25 UTC

1 58654U 23207A   26257.43424630 -.00000051  00000-0  00000-0 0  9997
2 58654  55.8368  59.2971 0000655  45.3182 314.6983  1.86229739 18502

Verfolge BEIDOU 3 M28 in Echtzeit mit AllMySat

Download on the App Store